This is the latest recevied weather packets stored in our database for station/object EA7JCM-13. If no packets are shown the sender has not sent any weather packets the latest 10 day(s).
| Time | Temp. | Humidity | Pressure | Rain* | Wind** | Luminosity | Snow |
|---|---|---|---|---|---|---|---|
| 1777650903 | 24.44° C | 51% | 1014.1 hPa | 0 mm | - | - | - |
| 1777650603 | 23.89° C | 52% | 1013.8 hPa | 0 mm | - | - | - |
| 1777650303 | 23.89° C | 51% | 1014 hPa | 0 mm | - | - | - |
| 1777650003 | 23.89° C | 51% | 1013.8 hPa | 0 mm | - | - | - |
| 1777649703 | 24.44° C | 50% | 1014 hPa | 0 mm | - | - | - |
| 1777649404 | 23.89° C | 51% | 1014.1 hPa | 0 mm | - | - | - |
| 1777649103 | 24.44° C | 51% | 1013.8 hPa | 0 mm | - | - | - |
| 1777648803 | 23.89° C | 50% | 1013.7 hPa | 0 mm | - | - | - |
| 1777648503 | 23.89° C | 51% | 1013.8 hPa | 0 mm | - | - | - |
| 1777648203 | 24.44° C | 52% | 1013.9 hPa | 0 mm | - | - | - |
| 1777647903 | 24.44° C | 51% | 1014 hPa | 0 mm | - | - | - |
| 1777647604 | 24.44° C | 51% | 1014.1 hPa | 0 mm | - | - | - |
| 1777647303 | 24.44° C | 50% | 1014.1 hPa | 0 mm | - | - | - |
| 1777647004 | 23.89° C | 52% | 1014 hPa | 0 mm | - | - | - |
| 1777646703 | 23.89° C | 52% | 1014.2 hPa | 0 mm | - | - | - |
| 1777646403 | 23.89° C | 52% | 1014.1 hPa | 0 mm | - | - | - |
| 1777646104 | 23.89° C | 53% | 1014.4 hPa | 0 mm | - | - | - |
| 1777645803 | 23.89° C | 52% | 1014 hPa | 0 mm | - | - | - |
| 1777645503 | 25° C | 50% | 1014.2 hPa | 0 mm | - | - | - |
| 1777645202 | 25° C | 50% | 1014.2 hPa | 0 mm | - | - | - |
| 1777644902 | 25° C | 50% | 1014.2 hPa | 0 mm | - | - | - |
| 1777644603 | 25° C | 49% | 1014.4 hPa | 0 mm | - | - | - |
| 1777644303 | 25.56° C | 50% | 1014.2 hPa | 0 mm | - | - | - |
| 1777644003 | 24.44° C | 52% | 1014.5 hPa | 0 mm | - | - | - |
| 1777643703 | 25.56° C | 52% | 1014.5 hPa | 0 mm | - | - | - |
* Rain latest hour (hover to see other rain measurements)
** Current wind speed in m/s (hover to see current wind gust speed)